{"data":{"norad_id":61056,"intl_designator":"2024-164G","name":"STARLINK-11156 [DTC]","alt_names":[],"object_type":"PAYLOAD","status":"ACTIVE","operator":null,"country":"US","launch_date":"2024-09-13","launch_site_code":"AFWTR","launch_vehicle":null,"mission":null,"orbit_class":"UNKNOWN","rcs_meters":null,"size_class":null,"mass_kg":null,"dimensions":null,"purposes":["comms"],"wikipedia_slug":null,"has_3d_model":false,"image_url":null,"decayed_at":null,"tle_current":{"epoch":"2026-05-25T03:07:49.063008Z","epoch_age_seconds":57771,"freshness":"FRESH","line1":"1 61056U 24164G   26145.13042897  .00000701  00000+0  10965-4 0  9999","line2":"2 61056  53.1595 293.7875 0000719  63.0254 297.0837 15.68837027 97432","mean_motion":15.68837027,"eccentricity":7.19e-5,"inclination_deg":53.1595,"raan_deg":293.7875,"arg_perigee_deg":63.0254,"mean_anomaly_deg":297.0837,"bstar":1.0965e-5,"rev_number":9743,"period_min":91.787736725824,"perigee_km":361.74139120459,"apogee_km":362.71065540734,"semimajor_km":6740.363023306,"source":"CELESTRAK","updated_at":"2026-05-25T13:38:19.354272Z"}}}